Retour au catalogue

COSMOS 2251 DEB

ActifLEO
NORAD 34009·DEBRIS·🇷🇺 Russia

Lancé Jun 16, 1993 depuis Plesetsk Cosmodrome

Loading…

Prochains Passages (prochaines 24 heures)

TLE

FraisSource: Space-Track

Époque: Sep 14, 2026, 06:33 UTC

1 34009U 93036GU  26257.27333843  .00000173  00000-0  72017-4 0  9994
2 34009  74.0374 193.3313 0028081 200.6616 310.6370 14.33399744918933

Suivez COSMOS 2251 DEB en temps réel avec AllMySat

Download on the App Store